Find Starlink 5330

NORAD ID: 55282 Int'l Des: 2023-010 Owner: SPXS Country: US Constellation: starlink operational
LEOCIRCULAR

实时位置

正在加载3D地球...

关于 Starlink 5330

正在加载描述...

即将过境

Passes for default location (London). Set your location on the main map for personalized predictions.

高度历史

Loading altitude history...

两行轨道根数

1 55282U 23010P 26127.25003472 .00067933 00000-0 56511-2 0 9997
2 55282 70.0011 256.6287 0003244 266.9077 29.7433 14.98296033 5715
Epoch: May 7, 2026 • Age: 5 hours

当前状态

高度 584.7 km
速度 7.57 km/s
星下点 63.93°N, 92.74°W
发射日期 Jan 19, 2023
运行时间 3.2 years
类型 internet

技术详情

分类 Payload
质量 305.00 kg
干质量 290.00 kg
总质量 305.00 kg
长度 0.20 m
直径 2.80 m
跨度 9.00 m
形状 Box + pan
制造商 SPXS
平台类型 Starlink
阶段状态 In Orbit
所有者/国家 SPXS/US

Most Searched